STARLINK-33632, 63577

Orbit data source: Space-Track

STARLINK-33632, 63577 is a payload satellite owned by SpaceX/Seattle (US) in LEO that was launched on Mon, 14 Apr 2025 UTC via an FALCON 9 launch vehicle from the Air Force Eastern Test Range (AFETR). Payload-class satellites include a variety of spacecraft equipped with specific instruments for various scientific and technological missions. These include communications satellites like Starlink; space stations such as the ISS; scientific satellites like the Hubble; Earth observation satellites from companies like Planet Labs, Umbra, and HawkEye 360; GPS; miniature CubeSats for education and research; and military/defense satellites.

Loading next visibility...
Identifier
63577, 2025-076J
Orbit
LEO
Country
Flag of USUS
Related business
Manufacturer
SpaceX/Seattle
Mission
Operational Commercial Communications
Bus & Motor
STARLINK V2MO, Unknown motor
Mass
575 kg wet, ~530 kg dry
Launch date (UTC)
2025-04-14 (1 year ago)
Launch vehicle
FALCON 9
Launch site
Air Force Eastern Test Range (AFETR)
Object type
Payload
Rocket body
Debris
Shape & HBR
Box + 2 Pan, 17.7 m
Radar Cross Section
36.964 m², Large (>1 m²)

Expand to show TLE details & history
Last TLE update: 15 hours ago

TLE from 15 hours ago
0 STARLINK-33632
1 63577U 25076J   26144.77681890  .00021874  00000-0  80177-3 0  9999
2 63577  42.9996 252.2835 0001444 276.1592  83.9096 15.27591575 63462
Epoch: 2026-05-24T18:38Z
TLE epoch observation values (Epoch: 2026-05-24T18:38:37.152Z)
Latitude
0.00002°
Longitude
90.25462°
Altitude
482.685 km
Speed
7.626 km/s
True Right ascension
16h 49m 08s
True Declination
0° 00' 00"
Sunlit
Object was in full shadow at epoch
Visualization orbit readout
Latitude
Unknown
Longitude
Unknown
Altitude
Unknown
Speed
Unknown
Apparent Right ascension
Unknown
Apparent Declination
Unknown
Sunlit
N/A
Visualization observer readout
Local Sidereal Time
18:26:11
Azimuth
Unknown
Elevation
Unknown
Doppler factor
Unknown
Orbital elements
Apogee altitude
485.951 km
Perigee altitude
483.969 km
Semi-major axis
6,863.097 km
Eccentricity
0.00014
Inclination
42.9996°
RAAN
252.2835°
Arg. of periapsis
276.1592°
True anomaly
83.92605°
Mean anomaly
83.9096°
Eccentric anomaly
83.91783°
Mean motion
3.81736 °/min
Orbital period
94.31 mins
BSTAR
0.00080177
Loading maneuver chart data...
Computing Atmospheric mass density...
Loading historical data...
Loading historical data...
Loading historical data...
Loading historical data...
Loading historical data...
Loading historical data...
Loading historical data...

Documentation

Showing up to 5 results
|